Skip Page Navigation
NASA JPL Caltech
NASA Logo - Jet Propulsion Laboratory + View the NASA Portal
+ Near-Earth Object (NEO) Program
Search JPL
JPL Home Earth Solar System Stars & Galaxies Technology
JPL Solar System Dynamics
BODIES ORBITS EPHEMERIDES TOOLS PHYSICAL DATA DISCOVERY FAQ SITE MAP
JPL Small-Body Database Browser
Search: [ help ]  
30253 Vitek (2000 HF24)
Classification: Main-belt Asteroid          SPK-ID: 2030253
Ephemeris | Orbit Diagram | Orbital Elements | Physical Parameters | Discovery Circumstances | Close-Approach Data ]

[ show orbit diagram ]
Orbital Elements at Epoch 2456400.5 (2013-Apr-18.0) TDB
Reference: JPL 1 (heliocentric ecliptic J2000)
 Element Value Uncertainty (1-sigma)   Units 
e .1868764931731217 7.0571e-08  
a 2.327154737749211 1.9265e-08 AU
q 1.892264221287423 1.6308e-07 AU
i 5.87045599838138 8.6733e-06 deg
node 168.7726818447661 7.2849e-05 deg
peri 264.4309074037521 7.9155e-05 deg
M 29.13909370876914 2.3899e-05 deg
tp 2456295.543374664984
(2013-Jan-03.04337467)
8.6447e-05 JED
period 1296.690470137544
3.55
1.6102e-05
4.408e-08
d
yr
n .2776298648680697 3.4475e-09 deg/d
Q 2.762045254210999 2.2866e-08 AU
  Orbit Determination Parameters
   # obs. used (total)      388  
   data-arc span      7739 days (21.19 yr)  
   first obs. used      1992-01-26  
   last obs. used      2013-04-04  
   planetary ephem.      DE405  
   SB-pert. ephem.      SB405-CPV-2  
   condition code      0  
   fit RMS      .62026  
   data source      ORB  
   producer      Otto Matic  
   solution date      2013-Apr-29 14:54:24  

Additional Information
 Earth MOID = .916901 AU 
 T_jup = 3.543 
[ show covariance matrix ]

Ephemeris | Orbit Diagram | Orbital Elements | Physical Parameters | Discovery Circumstances | Close-Approach Data ]

Physical Parameter Table
Parameter Symbol Value Units Sigma Reference Notes
absolute magnitude H 15.6 mag n/a PDS3 (MPO 16552)  

30253 Vítek           Discovered 2000 Apr. 30 by P. Kusnirák and P. Pravec at Ondrejov.
Antonín Vítek (b. 1940), a Czech biochemist and computer specialist, became an enthusiastic space popularizer in the Czech media. He disseminates accurate and reliable news and commentaries of cosmonautics in innumerable articles, books, interviews and talk-shows.
NOTE: some special characters may not display properly (any characters within {} are an attempt to place the proper accent above a character)
Reference: 20080321/MPCPages.arcLast Updated: 2008-03-26

[ show close-approach data ]
Alternate Designations
 2000 HF24 = 1998 XP94 
Ephemeris | Orbit Diagram | Orbital Elements | Physical Parameters | Discovery Circumstances | Close-Approach Data ]
ABOUT SSD CREDITS/AWARDS PRIVACY/COPYRIGHT GLOSSARY LINKS
FirstGov 2013-May-23 04:41 UT
(server date/time)  
NASA Home Page
Site Manager:   Donald K. Yeomans
Webmaster  Alan B. Chamberlin